Home   Weather   Guiyang   Past weeks
Flag for China

Past Weather in Guiyang, Guizhou, China — Yesterday and Last 2 Weeks

Now
68 °F

Sunny.


Feels Like: 68 °F
Forecast: 56 / 49 °F
Wind: 1 mph from North

Location: Guiyang Airport

Current Time: Mar 31, 2020 at 6:51:49 pm

Latest Report: Mar 31, 2020 at 6:00 pm


Visibility: 10 mi

Pressure: 29.92 "Hg (26.42 "Hg at 1067m altitude)

Humidity: 43%

Dew Point: 45 °F

Location of GuiyangLocation

Past Weather in Guiyang — Graph

°F

Guiyang Temperature Yesterday

Maximum temperature yesterday: 55 °F (at 2:00 pm)
Minimum temperature yesterday: 43 °F (at 12:00 am)
Average temperature yesterday: 47 °F

High & Low Weather Summary for the Past Weeks

 TemperatureHumidityPressure
High86 °F (Mar 21, 4:00 pm)100% (Mar 16, 7:00 pm)30.27 "Hg (Mar 16, 7:00 pm)
Low39 °F (Mar 29, 1:00 am)24% (Mar 21, 4:00 pm)29.71 "Hg (Mar 25, 5:00 pm)
Average59 °F74%29.98 "Hg
* Reported Mar 16 5:00 pm — Mar 31 5:00 pm, Guiyang. Weather by CustomWeather, © 2020

Note: Actual official high and low records may vary slightly from our data, if they occured in-between our weather recording intervals... More about our weather records

Guiyang Weather History for the Previous 24 Hours

Scroll right to see more
 ConditionsComfort  
Time TempWeatherWind HumidityBarometerVisibility
5:00 pm
Tue, Mar 31
68 °FSunny.1 mph43%29.95 "Hg10 mi
4:00 pm68 °FSunny.3 mph43%29.95 "Hg10 mi
3:00 pm64 °FPassing clouds.3 mph49%29.98 "HgN/A
2:00 pm63 °FSunny.3 mph52%30.01 "Hg10 mi
1:00 pm61 °FPassing clouds.3 mph55%30.07 "HgN/A
12:00 pm55 °FBroken clouds.6 mph63%30.09 "HgN/A
11:00 am54 °FMore clouds than sun.6 mph67%30.12 "HgN/A
10:00 am52 °FBroken clouds.3 mph77%30.12 "HgN/A
9:00 am50 °FSunny.1 mph82%30.12 "Hg10 mi
8:00 am46 °FScattered clouds.1 mph87%30.09 "HgN/A
7:00 am45 °FMore clouds than sun.1 mph93%30.07 "HgN/A
6:00 am45 °FMostly cloudy.3 mph93%30.04 "HgN/A
5:00 am45 °FMostly cloudy.3 mph87%30.04 "HgN/A
4:00 am43 °FMostly cloudy.3 mph93%30.04 "HgN/A
3:00 am43 °FMostly cloudy.3 mph93%30.04 "HgN/A
2:00 am43 °FMostly cloudy.6 mph93%30.07 "HgN/A
1:00 am43 °FMostly cloudy.6 mph93%30.07 "HgN/A
12:00 am43 °FLight rain. Mostly cloudy.6 mph100%30.07 "Hg4 mi
11:00 pm
Mon, Mar 30
43 °FLight rain. Fog.8 mph100%30.04 "Hg3 mi
10:00 pm43 °FLight rain. Fog.8 mph100%30.01 "Hg3 mi
9:00 pm45 °FLight rain. Fog.8 mph93%29.98 "Hg2 mi
8:00 pm45 °FDrizzle. Fog.10 mph93%29.92 "Hg2 mi
7:00 pm48 °FDrizzle. Fog.10 mph82%29.89 "Hg3 mi
6:00 pm52 °FMore clouds than sun.8 mph72%29.86 "HgN/A
Weather by CustomWeather, © 2020

See weather overview

Advertising